^^
Station Historical Data
 
Daily Summary for October 22, 2017 Units:  Metric    English   Both
« Previous Day
Next Day »
Daily Weekly Monthly Yearly Custom
  Current: High: Low: Average:
Temperature: 16.9 °C 17.6 °C 6.6 °C 10.9 °C
Dew Point: 10.8 °C 10.8 °C 5.7 °C 8.3 °C
Humidity: 67 % 99 % 63 % 85 %
Wind Speed: 0 km/h 1.6 km/h 0 km/h 0 km/h
Wind Gust: 1.6 km/h 9.7 km/h - -
Wind:Calm - - East
Pressure: 1023.9 hPa 1027.3 hPa 1023.9 hPa -
Precipitation: 0 mm      
Historical Graphs
 
 
Tabular Data for October 22, 2017
Time Temperature Dew Point Pressure Wind Wind Speed Wind Gust Humidity Rainfall Rate (Hourly) solar Conditions
00:04 10.2 °C 9.1 °C 1024.6 hPa Calm     93 % 0 mm WeatherDisplay:10.37 W/m2 BKN
00:09 10.2 °C 9.1 °C 1024.6 hPa Calm     93 % 0 mm WeatherDisplay:10.37 W/m2 BKN
00:14 10.1 °C 9.1 °C 1024.6 hPa Calm     93 % 0 mm WeatherDisplay:10.37 W/m2 BKN
00:19 10.1 °C 9.1 °C 1024.6 hPa Calm     93 % 0 mm WeatherDisplay:10.37 W/m2 BKN
00:24 10.1 °C 9 °C 1024.6 hPa Calm     93 % 0 mm WeatherDisplay:10.37 W/m2 BKN
00:34 10 °C 8.9 °C 1024.6 hPa Calm     93 % 0 mm WeatherDisplay:10.37 W/m2 BKN
00:39 9.9 °C 8.9 °C 1024.6 hPa Calm     93 % 0 mm WeatherDisplay:10.37 W/m2 BKN
00:44 9.9 °C 8.8 °C 1024.3 hPa Calm     93 % 0 mm WeatherDisplay:10.37 W/m2 BKN
00:49 9.9 °C 8.8 °C 1024.6 hPa Calm     93 % 0 mm WeatherDisplay:10.37 W/m2 BKN
00:54 9.9 °C 8.8 °C 1024.6 hPa Calm     93 % 0 mm WeatherDisplay:10.37 W/m2 BKN
00:59 9.8 °C 8.8 °C 1024.6 hPa Calm     93 % 0 mm WeatherDisplay:10.37 W/m2 BKN
01:04 9.8 °C 8.7 °C 1024.6 hPa Calm     93 % 0 mm WeatherDisplay:10.37 W/m2 BKN
01:09 9.8 °C 8.7 °C 1024.9 hPa Calm     93 % 0 mm WeatherDisplay:10.37 W/m2 BKN
01:19 9.7 °C 8.8 °C 1024.9 hPa Calm     94 % 0 mm WeatherDisplay:10.37 W/m2 BKN
01:24 9.7 °C 8.8 °C 1024.9 hPa Calm     94 % 0 mm WeatherDisplay:10.37 W/m2 BKN
01:29 9.7 °C 8.6 °C 1024.9 hPa Calm     93 % 0 mm WeatherDisplay:10.37 W/m2 BKN
01:34 9.7 °C 8.6 °C 1024.9 hPa Calm     93 % 0 mm WeatherDisplay:10.37 W/m2 BKN
01:39 9.6 °C 8.6 °C 1025.3 hPa Calm     93 % 0 mm WeatherDisplay:10.37 W/m2 BKN
01:44 9.6 °C 8.5 °C 1025.3 hPa Calm     93 % 0 mm WeatherDisplay:10.37 W/m2 BKN
01:49 9.6 °C 8.5 °C 1025.3 hPa Calm     93 % 0 mm WeatherDisplay:10.37 W/m2 BKN
01:54 9.5 °C 8.4 °C 1025.3 hPa Calm     93 % 0 mm WeatherDisplay:10.37 W/m2 BKN
01:59 9.4 °C 8.5 °C 1025.3 hPa Calm     94 % 0 mm WeatherDisplay:10.37 W/m2 BKN
02:04 9.4 °C 8.5 °C 1025.3 hPa Calm     94 % 0 mm WeatherDisplay:10.37 W/m2 BKN
02:09 9.4 °C 8.4 °C 1025.3 hPa Calm     94 % 0 mm WeatherDisplay:10.37 W/m2 BKN
02:14 9.3 °C 8.4 °C 1025.3 hPa Calm     94 % 0 mm WeatherDisplay:10.37 W/m2 OVC
02:24 9.2 °C 8.2 °C 1025.6 hPa Calm     93 % 0 mm WeatherDisplay:10.37 W/m2 OVC
02:29 9.2 °C 8.1 °C 1025.6 hPa Calm     93 % 0 mm WeatherDisplay:10.37 W/m2 OVC
02:34 9.1 °C 8.1 °C 1025.3 hPa Calm     93 % 0 mm WeatherDisplay:10.37 W/m2 OVC
02:49 8.9 °C 7.8 °C 1025.6 hPa Calm     93 % 0 mm WeatherDisplay:10.37 W/m2 OVC
02:54 8.8 °C 7.8 °C 1025.6 hPa Calm     93 % 0 mm WeatherDisplay:10.37 W/m2 OVC
02:59 8.8 °C 7.7 °C 1025.6 hPa Calm     93 % 0 mm WeatherDisplay:10.37 W/m2 OVC
03:04 8.7 °C 7.7 °C 1025.6 hPa Calm     93 % 0 mm WeatherDisplay:10.37 W/m2 OVC
03:09 8.6 °C 7.6 °C 1025.6 hPa Calm     93 % 0 mm WeatherDisplay:10.37 W/m2 OVC
03:14 8.6 °C 7.5 °C 1025.6 hPa Calm     93 % 0 mm WeatherDisplay:10.37 W/m2 BKN
03:19 8.5 °C 7.4 °C 1025.6 hPa Calm     93 % 0 mm WeatherDisplay:10.37 W/m2 BKN
03:24 8.4 °C 7.4 °C 1025.6 hPa Calm     93 % 0 mm WeatherDisplay:10.37 W/m2 BKN
03:29 8.4 °C 7.3 °C 1025.6 hPa Calm     93 % 0 mm WeatherDisplay:10.37 W/m2 BKN
03:34 8.3 °C 7.3 °C 1025.3 hPa Calm     93 % 0 mm WeatherDisplay:10.37 W/m2 BKN
03:39 8.3 °C 7.2 °C 1025.3 hPa Calm     93 % 0 mm WeatherDisplay:10.37 W/m2 BKN
03:44 8.2 °C 7.2 °C 1025.3 hPa Calm     93 % 0 mm WeatherDisplay:10.37 W/m2 BKN
03:49 8.2 °C 7.1 °C 1025.3 hPa Calm     93 % 0 mm WeatherDisplay:10.37 W/m2 BKN
03:54 8.1 °C 7.1 °C 1025.6 hPa Calm     93 % 0 mm WeatherDisplay:10.37 W/m2 BKN
03:59 8.1 °C 7 °C 1025.3 hPa Calm     93 % 0 mm WeatherDisplay:10.37 W/m2 BKN
04:04 8 °C 6.9 °C 1025.3 hPa Calm     93 % 0 mm WeatherDisplay:10.37 W/m2 BKN
04:09 7.9 °C 6.9 °C 1025.6 hPa Calm     93 % 0 mm WeatherDisplay:10.37 W/m2 BKN
04:14 7.9 °C 6.8 °C 1025.3 hPa Calm     93 % 0 mm WeatherDisplay:10.37 W/m2 BKN
04:19 7.8 °C 6.8 °C 1025.6 hPa Calm     93 % 0 mm WeatherDisplay:10.37 W/m2 BKN
04:24 7.8 °C 6.7 °C 1025.6 hPa Calm     93 % 0 mm WeatherDisplay:10.37 W/m2 BKN
04:29 7.7 °C 6.7 °C 1025.6 hPa Calm     93 % 0 mm WeatherDisplay:10.37 W/m2 BKN
04:39 7.6 °C 6.5 °C 1026 hPa Calm     93 % 0 mm WeatherDisplay:10.37 W/m2 BKN
04:44 7.5 °C 6.4 °C 1026 hPa Calm     93 % 0 mm WeatherDisplay:10.37 W/m2 BKN
04:49 7.4 °C 6.4 °C 1026 hPa Calm     93 % 0 mm WeatherDisplay:10.37 W/m2 BKN
04:54 7.4 °C 6.3 °C 1026 hPa Calm     93 % 0 mm WeatherDisplay:10.37 W/m2 BKN
04:59 7.3 °C 6.2 °C 1026.3 hPa Calm     93 % 0 mm WeatherDisplay:10.37 W/m2 BKN
05:04 7.2 °C 6.2 °C 1026.3 hPa Calm     93 % 0 mm WeatherDisplay:10.37 W/m2 BKN
05:09 7.2 °C 6.2 °C 1026.3 hPa Calm     93 % 0 mm WeatherDisplay:10.37 W/m2 BKN
05:14 7.1 °C 6.1 °C 1026.3 hPa Calm     93 % 0 mm WeatherDisplay:10.37 W/m2 BKN
05:19 7.1 °C 6.1 °C 1026.3 hPa Calm     93 % 0 mm WeatherDisplay:10.37 W/m2 BKN
05:24 7 °C 5.9 °C 1026.3 hPa Calm     93 % 0 mm WeatherDisplay:10.37 W/m2 BKN
05:29 6.9 °C 5.9 °C 1026.3 hPa Calm     93 % 0 mm WeatherDisplay:10.37 W/m2 BKN
05:34 6.9 °C 6.1 °C 1026.6 hPa Calm     94 % 0 mm WeatherDisplay:10.37 W/m2 BKN
05:39 6.9 °C 6 °C 1026.6 hPa Calm     94 % 0 mm WeatherDisplay:10.37 W/m2 BKN
05:44 6.8 °C 5.9 °C 1026.6 hPa Calm     94 % 0 mm WeatherDisplay:10.37 W/m2 BKN
05:49 6.8 °C 5.9 °C 1026.6 hPa Calm     94 % 0 mm WeatherDisplay:10.37 W/m2 BKN
05:54 6.8 °C 5.9 °C 1026.6 hPa Calm     94 % 0 mm WeatherDisplay:10.37 W/m2 BKN
05:59 6.8 °C 5.9 °C 1026.6 hPa Calm     94 % 0 mm WeatherDisplay:10.37 W/m2 BKN
06:04 6.7 °C 5.8 °C 1026.6 hPa Calm     94 % 0 mm WeatherDisplay:10.37 W/m2 BKN
06:09 6.7 °C 5.8 °C 1026.6 hPa Calm     94 % 0 mm WeatherDisplay:10.37 W/m2 BKN
06:14 6.7 °C 5.8 °C 1026.6 hPa Calm     94 % 0 mm WeatherDisplay:10.37 W/m2 BKN
06:19 6.7 °C 5.8 °C 1026.6 hPa Calm     94 % 0 mm WeatherDisplay:10.37 W/m2 BKN
06:24 6.6 °C 5.7 °C 1026.3 hPa Calm     94 % 0 mm WeatherDisplay:10.37 W/m2 BKN
06:29 6.6 °C 5.7 °C 1026.3 hPa Calm     94 % 0 mm WeatherDisplay:10.37 W/m2 BKN
06:34 6.6 °C 5.7 °C 1026.6 hPa Calm     94 % 0 mm WeatherDisplay:10.37 W/m2 BKN
06:39 6.6 °C 5.7 °C 1026.6 hPa Calm     94 % 0 mm WeatherDisplay:10.37 W/m2 BKN
06:44 6.6 °C 5.7 °C 1026.3 hPa Calm     94 % 0 mm WeatherDisplay:10.37 W/m2 BKN
06:49 6.6 °C 5.7 °C 1026.3 hPa Calm     94 % 0 mm WeatherDisplay:10.37 W/m2 BKN
06:54 6.6 °C 5.7 °C 1026.3 hPa Calm     94 % 0 mm WeatherDisplay:10.37 W/m2 BKN
06:59 6.6 °C 5.8 °C 1026.3 hPa Calm     95 % 0 mm WeatherDisplay:10.37 W/m2 BKN
07:09 6.6 °C 5.9 °C 1026.3 hPa Calm     95 % 0 mm WeatherDisplay:10.37 W/m2 BKN
07:14 6.7 °C 5.9 °C 1026.3 hPa Calm     95 % 0 mm WeatherDisplay:10.37 W/m2 BKN
07:24 6.7 °C 5.9 °C 1026.6 hPa Calm     95 % 0 mm WeatherDisplay:10.37 W/m2 BKN
07:29 6.7 °C 5.9 °C 1026.6 hPa Calm     95 % 0 mm WeatherDisplay:10.37 W/m2 BKN
07:34 6.7 °C 5.9 °C 1026.6 hPa Calm     95 % 0 mm WeatherDisplay:10.37 W/m2 BKN
07:39 6.7 °C 5.9 °C 1026.6 hPa Calm     95 % 0 mm WeatherDisplay:10.37 W/m2 BKN
07:44 6.7 °C 5.9 °C 1026.6 hPa Calm     95 % 0 mm WeatherDisplay:10.37 W/m2 BKN
07:49 6.7 °C 5.9 °C 1027 hPa Calm     95 % 0 mm WeatherDisplay:10.37 W/m2 BKN
07:54 6.7 °C 5.9 °C 1027 hPa Calm     95 % 0 mm WeatherDisplay:10.37 W/m2 BKN
07:59 6.7 °C 5.9 °C 1027 hPa Calm     95 % 0 mm WeatherDisplay:10.37 W/m2 BKN
08:04 6.7 °C 5.9 °C 1027 hPa Calm     95 % 0 mm WeatherDisplay:10.37 W/m2 BKN
08:09 6.7 °C 5.9 °C 1027 hPa Calm     95 % 0 mm WeatherDisplay:10.37 W/m2 BKN
08:14 6.7 °C 5.9 °C 1027 hPa Calm     95 % 0 mm WeatherDisplay:10.37 W/m2 BKN
08:19 6.7 °C 5.9 °C 1027 hPa Calm     95 % 0 mm WeatherDisplay:10.37 W/m2 BKN
08:24 6.7 °C 5.9 °C 1027 hPa Calm     95 % 0 mm WeatherDisplay:10.37 W/m2 BKN
08:29 6.7 °C 6 °C 1027 hPa Calm     95 % 0 mm WeatherDisplay:10.37 W/m2 BKN
08:34 6.7 °C 6 °C 1027 hPa Calm     95 % 0 mm WeatherDisplay:10.37 W/m2 BKN
08:39 6.9 °C 6.2 °C 1027 hPa Calm   3.2 km/h 95 % 0 mm WeatherDisplay:10.37 W/m2 BKN
08:44 7 °C 6.4 °C 1027 hPa Calm   1.6 km/h 96 % 0 mm WeatherDisplay:10.37 W/m2 BKN
08:49 7.2 °C 6.6 °C 1027.3 hPa Calm     96 % 0 mm WeatherDisplay:10.37 W/m2 BKN
08:54 7.4 °C 6.8 °C 1027.3 hPa Calm     96 % 0 mm WeatherDisplay:10.37 W/m2 BKN
08:59 7.5 °C 6.9 °C 1027.3 hPa Calm     96 % 0 mm WeatherDisplay:10.37 W/m2 BKN
09:04 7.6 °C 7 °C 1027.3 hPa Calm     96 % 0 mm WeatherDisplay:10.37 W/m2 BKN
09:09 7.7 °C 7.2 °C 1027.3 hPa Calm     96 % 0 mm WeatherDisplay:10.37 W/m2 BKN
09:14 7.9 °C 7.3 °C 1027.3 hPa Calm   3.2 km/h 96 % 0 mm WeatherDisplay:10.37 W/m2 BKN
09:19 7.9 °C 7.3 °C 1027.3 hPa Calm     96 % 0 mm WeatherDisplay:10.37 W/m2 BKN
09:24 8.1 °C 7.5 °C 1027.3 hPa Calm   8 km/h 96 % 0 mm WeatherDisplay:10.37 W/m2 BKN
09:29 8.3 °C 7.7 °C 1027 hPa Calm   4.8 km/h 96 % 0 mm WeatherDisplay:10.37 W/m2 BKN
09:34 8.4 °C 7.8 °C 1027.3 hPa Calm   3.2 km/h 96 % 0 mm WeatherDisplay:10.37 W/m2 BKN
09:39 8.6 °C 8 °C 1027.3 hPa Calm   1.6 km/h 96 % 0 mm WeatherDisplay:10.37 W/m2 BKN
09:44 8.8 °C 8.2 °C 1027.3 hPa Calm     96 % 0 mm WeatherDisplay:10.37 W/m2 BKN
09:49 9 °C 8.8 °C 1027.3 hPa Calm   3.2 km/h 99 % 0 mm WeatherDisplay:10.37 W/m2 BKN
09:54 9.3 °C 8.7 °C 1027 hPa Calm   3.2 km/h 96 % 0 mm WeatherDisplay:10.37 W/m2 BKN
09:59 9.6 °C 9 °C 1027 hPa Calm   3.2 km/h 96 % 0 mm WeatherDisplay:10.37 W/m2 BKN
10:04 9.9 °C 9.1 °C 1027 hPa Calm   1.6 km/h 95 % 0 mm WeatherDisplay:10.37 W/m2 BKN
10:09 10.3 °C 9.4 °C 1027 hPa Calm   8 km/h 94 % 0 mm WeatherDisplay:10.37 W/m2 BKN
10:14 10.6 °C 9.4 °C 1026.6 hPa Calm   8 km/h 92 % 0 mm WeatherDisplay:10.37 W/m2 BKN
10:19 10.9 °C 9.3 °C 1026.6 hPa Calm   6.4 km/h 90 % 0 mm WeatherDisplay:10.37 W/m2 BKN
10:24 11.2 °C 9.1 °C 1026.6 hPa Calm   4.8 km/h 87 % 0 mm WeatherDisplay:10.37 W/m2 BKN
10:29 11.4 °C 8.9 °C 1026.6 hPa Calm   1.6 km/h 85 % 0 mm WeatherDisplay:10.37 W/m2 BKN
10:44 12 °C 9.1 °C 1026.6 hPa Calm   6.4 km/h 82 % 0 mm WeatherDisplay:10.37 W/m2 BKN
10:49 12.2 °C 9 °C 1026.6 hPa Calm     81 % 0 mm WeatherDisplay:10.37 W/m2 BKN
10:54 12.3 °C 8.9 °C 1026.6 hPa Calm   1.6 km/h 80 % 0 mm WeatherDisplay:10.37 W/m2 BKN
10:59 12.4 °C 9.1 °C 1026.6 hPa East 1.6 km/h 4.8 km/h 80 % 0 mm WeatherDisplay:10.37 W/m2 BKN
11:04 12.6 °C 9.2 °C 1026.6 hPa Calm   3.2 km/h 80 % 0 mm WeatherDisplay:10.37 W/m2 BKN
11:09 12.7 °C 9.3 °C 1026.3 hPa Calm   4.8 km/h 80 % 0 mm WeatherDisplay:10.37 W/m2 BKN
11:14 12.8 °C 9.4 °C 1026.3 hPa Calm   1.6 km/h 80 % 0 mm WeatherDisplay:10.37 W/m2 BKN
11:19 12.9 °C 9.6 °C 1026.3 hPa Calm   3.2 km/h 80 % 0 mm WeatherDisplay:10.37 W/m2 BKN
11:24 13.1 °C 9.3 °C 1026.3 hPa Calm   4.8 km/h 78 % 0 mm WeatherDisplay:10.37 W/m2 BKN
11:29 13.2 °C 9.4 °C 1026.3 hPa East 1.6 km/h 4.8 km/h 78 % 0 mm WeatherDisplay:10.37 W/m2 BKN
11:34 13.3 °C 9.6 °C 1026.3 hPa Calm   3.2 km/h 78 % 0 mm WeatherDisplay:10.37 W/m2 BKN
11:39 13.5 °C 9.6 °C 1026 hPa Calm   4.8 km/h 77 % 0 mm WeatherDisplay:10.37 W/m2 BKN
11:44 13.6 °C 9.8 °C 1026 hPa Calm   1.6 km/h 78 % 0 mm WeatherDisplay:10.37 W/m2 BKN
11:49 13.7 °C 9.7 °C 1026.3 hPa Calm   3.2 km/h 77 % 0 mm WeatherDisplay:10.37 W/m2 BKN
11:54 13.8 °C 9.8 °C 1026 hPa Calm   4.8 km/h 77 % 0 mm WeatherDisplay:10.37 W/m2 BKN
11:59 13.8 °C 9.9 °C 1026 hPa Calm     77 % 0 mm WeatherDisplay:10.37 W/m2 BKN
12:04 13.9 °C 9.9 °C 1026 hPa Calm   1.6 km/h 77 % 0 mm WeatherDisplay:10.37 W/m2 BKN
12:09 14 °C 10 °C 1026 hPa Calm   3.2 km/h 77 % 0 mm WeatherDisplay:10.37 W/m2 BKN
12:14 14 °C 9.7 °C 1026 hPa Calm   3.2 km/h 75 % 0 mm WeatherDisplay:10.37 W/m2 BKN
12:19 14.1 °C 9.7 °C 1026 hPa Calm   4.8 km/h 75 % 0 mm WeatherDisplay:10.37 W/m2 BKN
12:24 14.1 °C 9.9 °C 1026 hPa Calm   3.2 km/h 76 % 0 mm WeatherDisplay:10.37 W/m2 BKN
12:29 14.2 °C 9.8 °C 1026 hPa Calm   3.2 km/h 75 % 0 mm WeatherDisplay:10.37 W/m2 BKN
12:34 14.3 °C 10.1 °C 1026 hPa Calm     76 % 0 mm WeatherDisplay:10.37 W/m2 BKN
12:39 14.4 °C 10 °C 1025.6 hPa Calm     75 % 0 mm WeatherDisplay:10.37 W/m2 BKN
12:44 14.5 °C 9.9 °C 1025.6 hPa Calm   1.6 km/h 74 % 0 mm WeatherDisplay:10.37 W/m2 BKN
12:49 14.6 °C 10.2 °C 1025.6 hPa Calm     75 % 0 mm WeatherDisplay:10.37 W/m2 BKN
12:54 14.6 °C 9.8 °C 1025.6 hPa Calm   3.2 km/h 73 % 0 mm WeatherDisplay:10.37 W/m2 BKN
12:59 14.7 °C 10.1 °C 1025.6 hPa Calm   1.6 km/h 74 % 0 mm WeatherDisplay:10.37 W/m2 BKN
13:04 14.7 °C 9.9 °C 1025.6 hPa Calm     73 % 0 mm WeatherDisplay:10.37 W/m2 BKN
13:09 14.7 °C 9.9 °C 1025.6 hPa Calm   1.6 km/h 73 % 0 mm WeatherDisplay:10.37 W/m2 BKN
13:14 14.8 °C 10 °C 1025.6 hPa Calm     73 % 0 mm WeatherDisplay:10.37 W/m2 BKN
13:19 14.8 °C 10 °C 1025.6 hPa Calm     73 % 0 mm WeatherDisplay:10.37 W/m2 BKN
13:24 14.8 °C 9.8 °C 1025.6 hPa Calm     72 % 0 mm WeatherDisplay:10.37 W/m2 BKN
13:29 14.9 °C 10.1 °C 1025.6 hPa Calm   3.2 km/h 73 % 0 mm WeatherDisplay:10.37 W/m2 BKN
13:34 15 °C 10.2 °C 1025.6 hPa ESE 1.6 km/h 8 km/h 73 % 0 mm WeatherDisplay:10.37 W/m2 BKN
13:39 15.2 °C 10.1 °C 1025.6 hPa Calm   8 km/h 72 % 0 mm WeatherDisplay:10.37 W/m2 BKN
13:44 15.3 °C 10.1 °C 1025.3 hPa Calm   4.8 km/h 71 % 0 mm WeatherDisplay:10.37 W/m2 BKN
13:49 15.5 °C 10.4 °C 1025.3 hPa Calm     72 % 0 mm WeatherDisplay:10.37 W/m2 BKN
13:54 15.7 °C 10.4 °C 1025.3 hPa Calm   1.6 km/h 71 % 0 mm WeatherDisplay:10.37 W/m2 BKN
13:59 15.9 °C 10.4 °C 1025.3 hPa Calm   3.2 km/h 70 % 0 mm WeatherDisplay:10.37 W/m2 BKN
14:04 16.1 °C 10.2 °C 1025.3 hPa Calm   1.6 km/h 68 % 0 mm WeatherDisplay:10.37 W/m2 BKN
14:09 16.2 °C 10.5 °C 1024.9 hPa Calm   3.2 km/h 69 % 0 mm WeatherDisplay:10.37 W/m2 BKN
14:14 16.4 °C 10.4 °C 1024.9 hPa Calm   3.2 km/h 68 % 0 mm WeatherDisplay:10.37 W/m2 BKN
14:19 16.5 °C 10.1 °C 1024.9 hPa ESE 1.6 km/h 9.7 km/h 66 % 0 mm WeatherDisplay:10.37 W/m2 BKN
14:24 16.6 °C 10.2 °C 1024.9 hPa Calm     66 % 0 mm WeatherDisplay:10.37 W/m2 BKN
14:29 16.7 °C 10.3 °C 1024.9 hPa East 1.6 km/h 6.4 km/h 66 % 0 mm WeatherDisplay:10.37 W/m2 BKN
14:34 16.8 °C 10.2 °C 1024.9 hPa Calm   3.2 km/h 65 % 0 mm WeatherDisplay:10.37 W/m2 BKN
14:39 16.9 °C 10.5 °C 1024.9 hPa Calm   4.8 km/h 66 % 0 mm WeatherDisplay:10.37 W/m2 BKN
14:44 16.9 °C 10.6 °C 1024.9 hPa Calm   3.2 km/h 66 % 0 mm WeatherDisplay:10.37 W/m2 BKN
14:49 17 °C 10.4 °C 1024.6 hPa Calm   3.2 km/h 65 % 0 mm WeatherDisplay:10.37 W/m2 BKN
14:54 17.1 °C 10.7 °C 1024.6 hPa Calm     66 % 0 mm WeatherDisplay:10.37 W/m2 BKN
14:59 17.1 °C 10.5 °C 1024.6 hPa Calm     65 % 0 mm WeatherDisplay:10.37 W/m2 BKN
15:04 17.2 °C 10.6 °C 1024.6 hPa Calm   1.6 km/h 65 % 0 mm WeatherDisplay:10.37 W/m2 BKN
15:09 17.3 °C 10.4 °C 1024.6 hPa ENE 1.6 km/h 4.8 km/h 64 % 0 mm WeatherDisplay:10.37 W/m2 BKN
15:14 17.3 °C 10.7 °C 1024.6 hPa Calm     65 % 0 mm WeatherDisplay:10.37 W/m2 BKN
15:19 17.3 °C 10.4 °C 1024.6 hPa Calm   1.6 km/h 64 % 0 mm WeatherDisplay:10.37 W/m2 BKN
15:24 17.4 °C 10.5 °C 1024.6 hPa Calm   3.2 km/h 64 % 0 mm WeatherDisplay:10.37 W/m2 BKN
15:29 17.4 °C 10.6 °C 1024.6 hPa Calm     64 % 0 mm WeatherDisplay:10.37 W/m2 BKN
15:39 17.6 °C 10.7 °C 1024.3 hPa Calm   1.6 km/h 64 % 0 mm WeatherDisplay:10.37 W/m2 BKN
15:44 17.6 °C 10.4 °C 1024.3 hPa Calm   1.6 km/h 63 % 0 mm WeatherDisplay:10.37 W/m2 BKN
15:49 17.6 °C 10.5 °C 1024.3 hPa Calm   4.8 km/h 63 % 0 mm WeatherDisplay:10.37 W/m2 BKN
15:54 17.6 °C 10.5 °C 1024.3 hPa Calm     63 % 0 mm WeatherDisplay:10.37 W/m2 BKN
15:59 17.6 °C 10.7 °C 1024.3 hPa Calm   3.2 km/h 64 % 0 mm WeatherDisplay:10.37 W/m2 BKN
16:04 17.6 °C 10.7 °C 1024.3 hPa Calm   1.6 km/h 64 % 0 mm WeatherDisplay:10.37 W/m2 BKN
16:09 17.5 °C 10.6 °C 1024.3 hPa Calm     64 % 0 mm WeatherDisplay:10.37 W/m2 BKN
16:14 17.4 °C 10.6 °C 1024.3 hPa Calm   1.6 km/h 64 % 0 mm WeatherDisplay:10.37 W/m2 BKN
16:19 17.4 °C 10.5 °C 1024.3 hPa Calm     64 % 0 mm WeatherDisplay:10.37 W/m2 BKN
16:24 17.3 °C 10.7 °C 1024.3 hPa Calm     65 % 0 mm WeatherDisplay:10.37 W/m2 BKN
16:29 17.2 °C 10.8 °C 1024.3 hPa Calm   3.2 km/h 66 % 0 mm WeatherDisplay:10.37 W/m2 BKN
16:34 17.2 °C 10.6 °C 1024.3 hPa Calm     65 % 0 mm WeatherDisplay:10.37 W/m2 BKN
16:39 17.1 °C 10.7 °C 1023.9 hPa Calm   1.6 km/h 66 % 0 mm WeatherDisplay:10.37 W/m2 BKN
16:44 17 °C 10.8 °C 1023.9 hPa Calm     67 % 0 mm WeatherDisplay:10.37 W/m2 BKN
16:49 16.9 °C 10.8 °C 1023.9 hPa Calm   1.6 km/h 67 % 0 mm WeatherDisplay:10.37 W/m2 BKN
Juneau County Weather
Compliments of Weather Underground - 2.5 mb